Vertical_Velocity
0 -2 1 1 0 -2 1 1 -0 -4 1 -1 -0 -1 1 -0 -1 -1 2 1 -0 -0 1 1 -1 -1 -0 -0 -2 -1 -1 -2 -0 0 -1 -1 -1 -1 0 -1 -1 -0 -1
-4 -2 2 -1 -0 -3 2 1 1 -2 -3 -0 -0 -2 2 -1 -0 -1 1 1 2 -1 -0 0 1 -1 0 0 -1 -1 -1 -1 -1 -2 -0 -0 -1 -2 -0 -1 -1 -1 -0
-1 1 1 2 1 -2 -0 0 -1 -2 -2 -1 -0 1 1 -1 0 -1 1 -2 1 0 -0 -0 2 -1 -1 -0 -1 -1 -1 0 -1 -1 -1 -1 -0 0 1 -1 -1 -1 -1
-3 1 -1 3 2 0 -2 0 -1 -1 -1 1 -1 1 4 0 -0 -1 0 0 0 1 1 -0 -1 -1 -2 -1 -1 -1 -1 -2 -0 -1 -0 0 -1 -1 -1 0 -0 -1 -2
-3 2 -0 4 1 3 0 1 -1 -1 -0 1 -1 -2 2 0 2 -1 -1 -0 -2 -0 0 -0 -1 -2 -1 -1 -0 -1 -2 -1 -0 -0 -1 -1 -1 -1 -0 -1 -1 -0 -1
-1 -0 3 3 1 3 3 1 -1 -1 -1 1 1 -0 0 0 1 0 1 -1 -2 1 -1 -0 -0 -1 -0 1 1 -1 -0 -1 -0 -1 -1 -0 -1 0 -0 -1 -1 -2 -1
1 -2 2 1 1 0 4 1 1 -1 -1 0 2 0 -1 -0 0 -1 2 0 -1 1 -1 -1 0 -1 0 0 1 -0 -1 -0 -2 -1 -2 -1 -1 -1 -1 -1 -0 -0 -0
4 1 1 1 2 2 1 2 2 0 2 1 1 1 1 0 -0 1 -2 -2 2 -1 -0 -1 -1 1 1 -1 0 -1 -0 -0 -0 -1 -1 -1 -1 -0 -0 -1 -1 -1 -0
7 9 1 1 -0 1 3 1 3 1 0 2 1 0 0 2 3 3 -3 -1 2 1 -1 0 -3 -0 2 1 0 1 -1 1 -1 -0 -1 -2 -2 -1 -1 -1 -1 -2 -1
8 5 4 3 3 -2 1 2 3 2 1 3 1 2 2 1 2 3 0 0 1 1 -0 1 -2 -2 1 1 -1 -1 -1 -1 -1 -0 -1 -1 -1 -0 -0 -1 -1 -1 -1
9 9 5 4 3 1 0 -5 3 3 1 3 3 3 -0 1 2 2 -0 -1 0 1 0 0 1 -4 -1 -0 -1 -1 -1 -2 -2 -2 -2 -1 -1 -2 -2 -2 -2 -1 -1
27 10 10 2 4 3 0 0 -1 1 2 -0 2 1 2 -1 1 2 1 1 -0 2 1 1 2 -1 -3 -1 -0 -1 -2 -1 -1 -0 -0 -2 -2 -1 -1 -1 -1 -1 -2
93 -7 5 10 7 5 2 1 2 1 -1 1 1 3 1 -2 1 1 2 -2 1 -1 -0 -0 3 2 -1 -1 0 -1 -1 -1 -0 0 0 1 1 -0 -1 -0 -1 -1 0
59 18 6 4 -2 2 0 -0 2 1 2 1 0 1 1 -2 -0 -1 -0 0 1 -2 -2 -1 1 1 -0 -1 -0 -1 -1 -0 -2 -1 -0 -1 -2 -0 -0 -0 -1 -2 -2
-29 17 8 1 8 2 1 -1 -1 -1 -0 2 3 -0 1 2 4 -0 -0 0 3 0 -1 0 1 2 2 0 -1 -2 -0 -1 -0 -0 -1 1 -1 -2 -0 -2 -1 -2 -3
-13 93 -7 1 4 1 6 1 1 -1 0 -2 3 1 2 3 3 3 -0 2 3 2 -0 -0 3 3 -0 -0 1 1 -3 -1 -2 -1 -1 -2 2 1 -3 0 -3 0 -0
-14 20 4 9 2 -1 6 6 4 3 -1 -0 2 1 3 4 3 5 1 -1 1 3 0 1 -0 2 3 3 1 0 -0 -0 -1 -1 0 2 -0 0 1 -0 1 -2 0
21 -29 -21 4 3 2 7 -0 5 2 1 -1 0 0 3 4 4 4 4 4 -1 3 1 -0 0 1 2 0 1 -1 -1 -0 -3 -2 -1 0 2 0 0 1 1 0 1
15 -17 -27 0 2 -1 4 -3 1 4 1 -1 -1 0 4 3 2 2 3 2 2 1 1 1 1 -2 -3 -2 0 1 1 -0 -1 -0 -1 -2 -1 0 2 -1 -1 -2 1
28 -27 1 -3 -3 3 1 5 0 2 2 1 3 0 1 3 5 2 1 3 2 4 4 -1 -1 -1 -2 0 -1 0 -1 1 -0 0 2 2 -1 -1 -1 1 2 -2 -0
24 13 9 20 -9 6 -4 1 -0 -3 -1 2 2 7 4 2 2 3 1 3 4 4 1 3 1 0 -2 2 -1 -1 -2 -5 -1 1 -2 -1 5 -2 -1 -1 1 4 -1
5 27 18 19 8 0 0 2 2 2 -0 9 3 2 3 4 5 4 5 2 3 1 -1 2 3 -2 3 -0 -1 -7 -3 1 0 1 -2 1 0 1 1 -1 -2 -0 3
-0 24 14 8 18 -7 -6 2 -5 -7 2 -10 1 1 2 4 4 5 0 1 0 1 1 3 -1 -2 -1 -5 -9 -6 -2 -0 2 3 0 -4 -5 5 4 3 -3 -0 -4
-22 76 55 12 4 9 19 -10 -15 1 -0 -2 6 6 3 2 6 3 3 2 2 -1 -0 2 -3 0 -6 -5 -1 -1 -0 -1 -2 -3 1 -2 -0 -1 -1 6 4 4 -4
16 -7 31 16 11 14 -3 12 6 -2 6 8 6 3 3 7 4 3 1 -1 -3 1 4 4 0 -10 -8 -10 -5 0 -2 -5 -1 -1 -6 -3 -3 -0 2 1 -3 -1 -2
27 -14 -19 47 1 13 -4 0 4 8 9 16 4 10 7 8 -2 9 10 6 6 -1 11 -8 -4 1 -1 -6 -0 -1 -0 -2 -1 -1 -1 -2 -6 -1 -2 -4 -5 -5 -5
Height
3156 3158 3159 3161 3163 3165 3166 3169 3169 3169 3171 3172 3174 3175 3176 3177 3179 3180 3181 3181 3181 3180 3181 3181 3181 3181 3181 3182 3182 3182 3181 3182 3182 3182 3182 3182 3181 3180 3179 3178 3178 3178 3176
3155 3157 3158 3160 3162 3163 3165 3168 3169 3169 3170 3171 3174 3176 3176 3178 3180 3181 3181 3182 3182 3182 3182 3182 3183 3183 3183 3183 3183 3183 3183 3183 3182 3182 3183 3182 3182 3182 3181 3180 3179 3179 3178
3153 3154 3157 3158 3160 3162 3163 3166 3168 3169 3170 3171 3173 3176 3177 3179 3180 3181 3182 3182 3183 3183 3184 3184 3184 3184 3184 3184 3184 3184 3184 3184 3184 3184 3184 3183 3183 3183 3183 3182 3181 3180 3179
3150 3152 3154 3156 3158 3160 3162 3164 3167 3169 3170 3170 3173 3175 3177 3178 3180 3181 3182 3183 3184 3184 3185 3185 3185 3185 3185 3185 3185 3185 3185 3185 3185 3185 3186 3185 3185 3184 3184 3183 3183 3182 3181
3148 3149 3152 3154 3156 3158 3161 3163 3165 3167 3169 3170 3172 3175 3176 3178 3180 3181 3183 3183 3184 3185 3185 3186 3186 3186 3186 3187 3187 3187 3187 3187 3187 3187 3187 3186 3186 3186 3186 3184 3183 3183 3182
3145 3147 3150 3153 3154 3156 3159 3162 3164 3166 3168 3169 3171 3174 3176 3178 3180 3181 3182 3184 3184 3185 3186 3187 3187 3187 3187 3188 3189 3189 3189 3189 3189 3189 3189 3188 3188 3187 3186 3186 3185 3184 3183
3142 3144 3147 3150 3152 3155 3157 3160 3162 3164 3167 3169 3171 3174 3176 3178 3179 3181 3183 3184 3185 3186 3187 3188 3188 3189 3189 3190 3190 3191 3191 3191 3191 3191 3191 3190 3190 3189 3188 3187 3186 3185 3184
3138 3141 3144 3147 3149 3153 3156 3159 3161 3163 3166 3169 3171 3173 3176 3178 3179 3181 3183 3184 3186 3187 3187 3188 3190 3190 3191 3191 3192 3192 3192 3192 3192 3192 3192 3192 3191 3190 3189 3188 3187 3186 3185
3134 3137 3141 3144 3146 3150 3154 3157 3160 3163 3166 3168 3171 3173 3175 3177 3179 3181 3183 3185 3187 3188 3189 3190 3191 3192 3193 3193 3194 3194 3194 3194 3194 3194 3194 3194 3193 3192 3191 3190 3189 3188 3186
3130 3134 3137 3140 3143 3147 3151 3155 3159 3162 3165 3167 3170 3172 3175 3177 3179 3181 3183 3185 3187 3189 3190 3191 3192 3193 3194 3194 3195 3195 3195 3195 3195 3195 3195 3195 3194 3193 3192 3191 3190 3188 3187
3122 3129 3132 3136 3139 3143 3147 3151 3156 3160 3163 3166 3169 3171 3173 3176 3178 3181 3183 3185 3187 3190 3191 3192 3193 3194 3195 3196 3196 3196 3197 3196 3196 3196 3196 3195 3195 3194 3192 3191 3190 3189 3187
3117 3124 3128 3132 3135 3139 3143 3148 3152 3157 3161 3164 3167 3170 3173 3176 3178 3180 3183 3185 3188 3190 3192 3194 3194 3195 3196 3196 3197 3197 3197 3197 3197 3197 3197 3196 3196 3194 3193 3192 3191 3189 3188
3106 3118 3123 3127 3131 3135 3139 3144 3149 3153 3157 3161 3166 3169 3171 3174 3177 3179 3182 3184 3187 3189 3192 3193 3195 3196 3196 3197 3197 3197 3198 3198 3198 3198 3197 3196 3196 3195 3194 3192 3191 3190 3188
3092 3107 3118 3123 3128 3132 3137 3142 3146 3151 3155 3159 3163 3167 3170 3173 3176 3179 3182 3185 3187 3189 3192 3194 3195 3196 3196 3197 3197 3198 3198 3198 3198 3197 3197 3196 3196 3195 3194 3192 3191 3189 3188
3094 3095 3112 3118 3123 3130 3135 3140 3144 3148 3153 3158 3162 3166 3170 3173 3177 3180 3183 3185 3188 3190 3192 3194 3195 3196 3196 3196 3197 3197 3197 3197 3197 3197 3196 3196 3195 3194 3193 3192 3190 3189 3188
3090 3086 3107 3114 3119 3125 3132 3138 3143 3147 3151 3156 3160 3164 3168 3172 3176 3179 3182 3185 3188 3190 3192 3193 3194 3195 3196 3196 3196 3196 3197 3197 3197 3196 3196 3195 3194 3192 3191 3190 3189 3188 3186
3081 3079 3102 3108 3114 3122 3129 3133 3140 3144 3150 3154 3159 3163 3166 3170 3175 3179 3181 3184 3186 3188 3190 3193 3194 3194 3195 3195 3195 3195 3195 3195 3195 3195 3194 3193 3192 3191 3190 3189 3188 3186 3185
3074 3085 3096 3105 3112 3119 3125 3131 3137 3143 3148 3153 3157 3161 3165 3169 3173 3176 3179 3182 3185 3187 3189 3191 3192 3193 3193 3193 3194 3193 3193 3193 3192 3192 3191 3191 3190 3190 3188 3187 3186 3184 3183
3072 3078 3094 3103 3108 3114 3121 3128 3133 3140 3146 3151 3155 3160 3164 3168 3171 3175 3177 3180 3182 3185 3186 3188 3189 3190 3191 3191 3191 3191 3191 3190 3189 3189 3188 3188 3187 3186 3185 3184 3183 3181 3180
3071 3078 3087 3100 3102 3108 3115 3124 3129 3135 3142 3148 3153 3159 3162 3167 3170 3172 3175 3177 3180 3182 3183 3184 3186 3186 3187 3188 3188 3188 3187 3187 3186 3186 3185 3184 3183 3182 3182 3181 3179 3178 3177
3066 3073 3080 3091 3094 3100 3108 3118 3125 3132 3138 3144 3149 3155 3159 3164 3167 3169 3172 3174 3177 3179 3180 3181 3182 3183 3185 3185 3185 3184 3183 3183 3182 3180 3179 3178 3177 3178 3178 3177 3175 3174 3173
3057 3069 3077 3083 3088 3096 3106 3116 3124 3130 3136 3142 3149 3155 3158 3161 3164 3166 3169 3171 3173 3175 3176 3177 3178 3180 3181 3182 3181 3181 3180 3180 3177 3176 3174 3172 3171 3172 3173 3173 3172 3170 3169
3053 3062 3071 3079 3085 3095 3106 3113 3118 3123 3131 3138 3142 3148 3153 3157 3160 3163 3165 3167 3170 3172 3174 3175 3175 3176 3177 3176 3178 3178 3174 3174 3172 3171 3170 3169 3168 3168 3167 3166 3166 3165 3164
3054 3057 3066 3074 3085 3093 3102 3109 3117 3122 3129 3136 3142 3146 3150 3154 3157 3160 3162 3164 3167 3169 3171 3171 3172 3173 3173 3173 3172 3171 3171 3169 3167 3166 3165 3165 3163 3163 3162 3161 3160 3159 3158
3046 3054 3063 3074 3084 3092 3102 3108 3113 3118 3124 3132 3137 3141 3146 3149 3152 3155 3157 3160 3162 3165 3166 3167 3167 3170 3167 3164 3166 3166 3165 3164 3162 3161 3160 3160 3159 3158 3157 3155 3155 3153 3152
3047 3056 3062 3069 3075 3086 3094 3101 3108 3113 3119 3125 3130 3135 3139 3143 3146 3149 3153 3155 3158 3158 3159 3159 3162 3164 3162 3161 3160 3160 3159 3158 3158 3156 3155 3155 3154 3154 3152 3151 3151 3149 3148